This demonstration page uses our WeatherBlox Daily Observations layout. Learn more.

Left ArrowRight Arrow

44.8408, -93.29828

Hourly Observations for December 2, 2022

Temp ( °F °C ) Dew Point ( °F °C ) Humidity (%) Winds ( mph kmh ) Pressure ( in mb ) Visibility ( mi km ) Precip ( " mm )
12:53 am 00:53 Mostly Cloudy 30 -1.1 19 -7.2 63 63 SSE 8 13 29.80 1009 10 16 0.00 0.00
1:53 am 01:53 Mostly Cloudy 30 -1.1 20 -6.7 66 66 SSE 9 15 29.77 1008 10 16 0.00 0.00
2:53 am 02:53 Mostly Cloudy 31 -0.6 21 -6.1 66 66 SSE 10 17 29.74 1007 10 16 0.00 0.00
3:53 am 03:53 Mostly Cloudy 32 0 21 -6.1 63 63 SSE 12 19 29.71 1006 10 16 0.00 0.00
4:53 am 04:53 Cloudy 31 -0.6 21 -6.1 66 66 SSE 10 17 29.68 1005 10 16 0.00 0.00
5:53 am 05:53 Cloudy 30 -1.1 20 -6.7 66 66 SSE 12 19 29.66 1004 10 16 0.00 0.00
6:53 am 06:53 Mostly Cloudy 30 -1.1 20 -6.7 66 66 SSE 7 11 29.64 1004 10 16 0.00 0.00
7:53 am 07:53 Mostly Cloudy 30 -1.1 21 -6.1 69 69 SSE 8 13 29.62 1003 10 16 0.00 0.00
8:53 am 08:53 Cloudy 32 0 22 -5.6 66 66 S 12 19 29.60 1002 10 16 0.00 0.00
9:53 am 09:53 Mostly Cloudy 35 1.7 23 -5 61 61 SSW 8 13 29.60 1002 10 16 0.00 0.00
10:53 am 10:53 Mostly Cloudy 35 1.7 24 -4.4 64 64 S 10 17 29.56 1001 10 16 0.00 0.00
11:53 am 11:53 Cloudy 36 2.2 25 -3.9 64 64 S 9 15 29.54 1000 10 16 0.00 0.00
12:53 pm 12:53 Cloudy 39 3.9 27 -2.8 62 62 SSW 8 13 29.52 1000 10 16 0.00 0.00
1:53 pm 13:53 Cloudy 38 3.3 27 -2.8 64 64 WSW 14 22 29.54 1000 10 16 0.00 0.00
2:53 pm 14:53 Cloudy 38 3.3 27 -2.8 64 64 W 8 13 29.55 1001 10 16 0.00 0.00
3:53 pm 15:53 Cloudy 37 2.8 27 -2.8 67 67 W 7 11 29.58 1002 10 16 0.00 0.00
4:53 pm 16:53 Cloudy 37 2.8 28 -2.2 70 70 W 10 17 29.62 1003 10 16 0.00 0.00
5:53 pm 17:53 Cloudy 33 0.6 27 -2.8 78 78 WNW 17 28 29.66 1005 10 16 0.00 0.00
6:07 pm 18:07 Cloudy with Light Snow 32 0 26 -3.3 78 78 WNW 16 26 29.69 1006 5 8 0.01 0.13
6:27 pm 18:27 Cloudy with Light Snow 30 -1.1 26 -3.3 85 85 WNW 17 28 29.72 1006 2 3 0.01 0.13
6:33 pm 18:33 Cloudy with Light Snow 30 -1.1 26 -3.3 85 85 WNW 18 30 29.73 1007 1 2 0.01 0.13
6:40 pm 18:40 Windy with Snow Likely 28 -2.2 24 -4.4 85 85 WNW 21 33 29.74 1007 1 2 0.01 0.13
6:49 pm 18:49 Partly Cloudy with Isolated Snow Showers 28 -2 25 -4 86 86 WNW 23 37 29.74 1007 1 1 0.01 0.13
6:53 pm 18:53 Partly Cloudy with Isolated Snow Showers 27 -2.8 23 -5 85 85 WNW 23 37 29.73 1007 1 1 0.01 0.13
7:05 pm 19:05 Mostly Clear with Snow 26 -3.3 23 -5 88 88 WNW 20 31 29.78 1008 1 1 0.01 0.13
7:21 pm 19:21 Partly Cloudy with Isolated Snow Showers 25 -3.9 21 -6.1 85 85 WNW 18 30 29.79 1009 1 2 0.01 0.13
7:31 pm 19:31 Windy with Snow Likely 25 -3.9 20 -6.7 81 81 WNW 24 39 29.80 1009 6 10 0.01 0.13
7:46 pm 19:46 Cloudy 24 -4.4 19 -7.2 81 81 WNW 23 37 29.81 1009 7 11 0.02 0.51
7:53 pm 19:53 Cloudy 23 -5 17 -8.3 78 78 NW 24 39 29.78 1009 7 11 0.02 0.51
8:02 pm 20:02 Cloudy 23 -5 17 -8.3 78 78 NW 22 35 29.83 1010 7 11 0.00 0.00
8:12 pm 20:12 Cloudy with Light Snow 22 -5.6 16 -8.9 77 77 NW 18 30 29.87 1011 3 5 0.01 0.13
8:23 pm 20:23 Cloudy with Light Snow 22 -5.6 16 -8.9 77 77 WNW 17 28 29.89 1012 3 4 0.01 0.13
8:38 pm 20:38 Windy with Snow Likely 20 -6.7 14 -10 77 77 NW 21 33 29.89 1012 4 6 0.01 0.13
8:53 pm 20:53 Cloudy 20 -6.7 13 -10.6 74 74 NW 22 35 29.87 1011 7 11 0.01 0.13
9:08 pm 21:08 Cloudy 19 -7.2 12 -11.1 74 74 WNW 21 33 29.93 1014 10 16 0.00 0.00
9:16 pm 21:16 Windy with Snow Likely 19 -7.2 11 -11.7 70 70 NW 30 48 29.94 1014 4 6 0.01 0.13
9:23 pm 21:23 Windy with Snow Likely 18 -7.8 11 -11.7 73 73 NW 21 33 29.95 1014 1 2 0.01 0.13
9:31 pm 21:31 Windy with Snow Likely 18 -7.8 11 -11.7 73 73 NW 24 39 29.97 1015 2 3 0.01 0.13
9:43 pm 21:43 Windy with Snow Likely 18 -7.8 11 -11.7 73 73 NW 21 33 29.97 1015 3 5 0.01 0.13
9:53 pm 21:53 Cloudy with Light Snow 18 -7.8 11 -11.7 73 73 WNW 17 28 29.95 1014 4 6 0.01 0.13
10:05 pm 22:05 Windy with Snow Likely 17 -8.3 10 -12.2 73 73 NW 28 44 30.01 1016 2 3 0.01 0.13
10:14 pm 22:14 Windy with Snow Likely 17 -8.3 11 -11.7 76 76 WNW 22 35 30.02 1017 1 2 0.01 0.13
10:37 pm 22:37 Windy with Snow Likely 16 -8.9 10 -12.2 77 77 NW 21 33 30.04 1017 2 2 0.01 0.13
10:53 pm 22:53 Windy with Snow Likely 15 -9.4 9 -12.8 76 76 NW 30 48 30.01 1016 2 3 0.01 0.13
11:40 pm 23:40 Cloudy with Light Snow 14 -10 8 -13.3 77 77 WNW 18 30 30.10 1019 2 3 0.01 0.13
11:53 pm 23:53 Cloudy with Light Snow 14 -10 7 -13.9 73 73 NW 18 30 30.07 1018 2 3 0.01 0.13

Powered by AerisWeather